Retour au catalogue

COSMOS 894

ActifMilitairePO
NORAD 9846·PAYLOAD·🇷🇺 Russia

Lancé Feb 21, 1977 depuis Plesetsk Cosmodrome

Loading…

Prochains Passages (prochaines 24 heures)

TLE

FraisSource: Space-Track

Époque: Sep 13, 2026, 21:08 UTC

1 09846U 77013A   26256.88104299  .00000047  00000-0  34204-4 0  9995
2 09846  82.9448  31.5511 0028970 324.0038 150.4382 13.74214859484357

Suivez COSMOS 894 en temps réel avec AllMySat

Download on the App Store